Weather History for KSBN - September, 2012

Change the Weather History Date:

Monday, September 3, 2012

  Actual Average Record
Temperature  
Mean Temperature 79 °F 69 °F  
Max Temperature 90 °F 79 °F 96 °F (1913)
Min Temperature 68 °F 59 °F 39 °F (1908)
Degree Days  
Heating Degree Days 0 1  
Month to date heating degree days 0 3  
Since 1 July heating degree days 10 21  
Cooling Degree Days 14 5  
Month to date cooling degree days 36 15  
Year to date cooling degree days 1064 697  
Growing Degree Days 29 (Base 50)    
Moisture  
Dew Point 68 °F    
Average Humidity 70    
Maximum Humidity 84    
Minimum Humidity 55    
Precipitation  
Precipitation 0.00 in 0.12 in 1.22 in (1928)
Month to date precipitation T 0.36  
Year to date precipitation 24.58 25.63  
Snow  
Snow 0.00 in - - ()
Month to date snowfall 0.0  
Snow Depth 0.00 in    
Sea Level Pressure  
Sea Level Pressure 29.90 in    
Wind  
Wind Speed 5 mph (NE)    
Max Wind Speed 13 mph    
Max Gust Speed 17 mph    
Visibility 10 miles    
Events      
T = Trace of Precipitation, MM = Missing Value Source: NWS Daily Summary

Daily Weather History Graph

Daily Weather History Graph

Search for Another Location

Airport or City:

Trip Planner

Search our weather history database for the weather conditions in past years. The results will help you decide how hot, cold, wet, or windy it might be!

Date:

Astronomy

Sep. 03, 2012 Rise Set
Actual Time 7:13 AM EDT 8:14 PM EDT
Civil Twilight 6:45 AM EDT 8:42 PM EDT
Nautical Twilight 6:11 AM EDT 9:16 PM EDT
Astronomical Twilight 5:35 AM EDT 9:51 PM EDT
Moon 9:29 PM EDT 10:25 AM EDT
Length of Visible Light 13h 57m
Length of Day
13h 00m
Waning Gibbous, 90% of the Moon is Illuminated
Sep 3
Waning Gibbous
Sep 8
Last Quarter
Sep 15
New
Sep 22
First Quarter
Sep 29
Full

Hourly Weather History & Observations

Time (EDT) Temp. Heat Index Dew Point Humidity Pressure Visibility Wind Dir Wind Speed Gust Speed Precip Events Conditions
12:54 AM 73.9 °F - 68.0 °F 82% 29.93 in 10.0 mi East 6.9 mph - N/A   Clear
1:54 AM 73.0 °F - 68.0 °F 84% 29.93 in 10.0 mi ENE 8.1 mph - N/A   Clear
2:54 AM 72.0 °F - 66.9 °F 84% 29.91 in 10.0 mi ENE 5.8 mph - N/A   Clear
3:54 AM 71.1 °F - 66.0 °F 84% 29.90 in 10.0 mi East 10.4 mph - N/A   Clear
4:54 AM 71.1 °F - 64.9 °F 81% 29.90 in 10.0 mi East 6.9 mph - N/A   Clear
5:54 AM 70.0 °F - 64.9 °F 84% 29.91 in 10.0 mi ENE 4.6 mph - N/A   Clear
6:54 AM 69.1 °F - 64.0 °F 84% 29.91 in 10.0 mi NNE 5.8 mph - N/A   Clear
7:54 AM 69.1 °F - 64.9 °F 87% 29.93 in 10.0 mi NE 4.6 mph - N/A   Clear
8:54 AM 72.0 °F - 66.0 °F 81% 29.92 in 10.0 mi East 8.1 mph - N/A   Clear
9:54 AM 75.9 °F - 66.9 °F 74% 29.93 in 10.0 mi East 4.6 mph - N/A   Clear
10:54 AM 79.0 °F - 69.1 °F 72% 29.93 in 10.0 mi East 4.6 mph - N/A   Clear
11:54 AM 82.0 °F 85.9 °F 70.0 °F 67% 29.92 in 10.0 mi East 4.6 mph - N/A   Clear
12:54 PM 84.9 °F 89.4 °F 70.0 °F 61% 29.91 in 10.0 mi ENE 3.5 mph - N/A   Clear
1:54 PM 87.1 °F 92.0 °F 70.0 °F 57% 29.90 in 10.0 mi NE 9.2 mph - N/A   Partly Cloudy
2:54 PM 88.0 °F 92.9 °F 70.0 °F 55% 29.90 in 10.0 mi ENE 6.9 mph - N/A   Scattered Clouds
3:54 PM 89.1 °F 95.0 °F 71.1 °F 55% 29.88 in 10.0 mi Calm Calm - N/A   Scattered Clouds
4:54 PM 88.0 °F 93.8 °F 71.1 °F 57% 29.87 in 10.0 mi North 6.9 mph - N/A   Scattered Clouds
5:54 PM 87.1 °F 91.3 °F 69.1 °F 55% 29.86 in 10.0 mi Calm Calm - N/A   Clear
6:54 PM 84.9 °F 91.4 °F 73.0 °F 67% 29.86 in 10.0 mi NNW 4.6 mph - N/A   Clear
7:54 PM 81.0 °F 84.9 °F 71.1 °F 72% 29.87 in 10.0 mi NNW 10.4 mph - N/A   Mostly Cloudy
8:54 PM 77.0 °F - 70.0 °F 79% 29.88 in 10.0 mi NNW 4.6 mph - N/A   Clear
9:54 PM 75.0 °F - 69.1 °F 82% 29.91 in 10.0 mi North 4.6 mph - N/A   Clear
10:54 PM 73.9 °F - 68.0 °F 82% 29.91 in 10.0 mi East 4.6 mph - N/A   Clear
11:54 PM 73.9 °F - 68.0 °F 82% 29.89 in 10.0 mi Calm Calm - N/A   Clear